This is the latest recevied weather packets stored in our database for station/object K7TUS-6. If no packets are shown the sender has not sent any weather packets the latest 10 day(s).
| Time | Temp. | Humidity | Pressure | Rain* | Wind** | Luminosity | Snow |
|---|---|---|---|---|---|---|---|
| 1778193603 | 20.56° C | 1% | 984.2 hPa | - | - | - | - |
| 1778193309 | 20.56° C | 1% | 983.3 hPa | - | - | - | - |
| 1778192708 | 18.33° C | 1% | 984.9 hPa | - | - | - | - |
| 1778192408 | 18.89° C | 1% | 984.4 hPa | - | - | - | - |
| 1778192107 | 18.89° C | 1% | 983.3 hPa | - | - | - | - |
| 1778191806 | 18.33° C | 1% | 983.9 hPa | - | - | - | - |
| 1778191506 | 18.33° C | 1% | 984.4 hPa | - | - | - | - |
| 1778191205 | 19.44° C | 1% | 983.8 hPa | - | - | - | - |
| 1778190905 | 18.89° C | 1% | 984.3 hPa | - | - | - | - |
| 1778190604 | 18.33° C | 1% | 984.3 hPa | - | - | - | - |
| 1778189703 | 21.11° C | 1% | 984.9 hPa | - | - | - | - |
| 1778189409 | 20.56° C | 1% | 985.4 hPa | - | - | - | - |
| 1778189108 | 21.11° C | 1% | 984.3 hPa | - | - | - | - |
| 1778188507 | 20.56° C | 1% | 984.4 hPa | - | - | - | - |
| 1778188207 | 20.56° C | 1% | 984.1 hPa | - | - | - | - |
| 1778187606 | 20.56° C | 1% | 984.2 hPa | - | - | - | - |
| 1778187305 | 21.67° C | 1% | 984.9 hPa | - | - | - | - |
| 1778187005 | 21.11° C | 1% | 985.3 hPa | - | - | - | - |
| 1778186704 | 20.56° C | 1% | 985.5 hPa | - | - | - | - |
| 1778186403 | 20.56° C | 1% | 985 hPa | - | - | - | - |
| 1778186109 | 21.67° C | 1% | 985.1 hPa | - | - | - | - |
| 1778185808 | 20.56° C | 1% | 984.8 hPa | - | - | - | - |
| 1778185508 | 19.44° C | 1% | 985.7 hPa | - | - | - | - |
| 1778185207 | 22.78° C | 1% | 985.9 hPa | - | - | - | - |
| 1778184906 | 21.67° C | 1% | 985.8 hPa | - | - | - | - |
* Rain since midnight (hover to see other rain measurements)
** Current wind speed in m/s (hover to see current wind gust speed)